KOREASAT-6A

导读 | 星芒AI

KOREASAT-6A 是韩国通信卫星,由韩国航天局(KARI)与韩国电信公司合作开发,于2023年发射。该卫星主要用于提供广播、宽带通信及应急通信服务,运行于地球同步轨道,覆盖韩国及周边地区。KOREASAT-6A 搭载先进通信载荷,提升信号传输效率与服务质量,是韩国推动数字基础设施建设的重要一环。

基本信息
目录编号:
61910
目录名称:
KOREASAT 6A
国际标识:
2024-206A
轨道中心:
EARTH
卫星名称:
KOREASAT-6A
卫星全名:
KOREASAT-6A
卫星状态:
在轨 (已飞行397 天)
发射日期:
2024-11-11 UTC
国别 :
韩国 (KR)
星等 :
--
轨道信息
数据来源 国际轨道数据 AOE轨道数据
星历时间 2025-12-13T00:56:22+0800
16小时前
查看轨道信息
2025-12-10T00:00:00+0800
3天前
查看轨道信息
半长轴 42166.494km 42165.149km
偏心率 0.0000675 0.0000993
轨道倾角 0.013° 0.031°
近地点辐角 275.751° 126.725°
升交点赤经 325.289° 104.933°
平近点角 210.671° 203.004°
近地点 35785.512km 35782.827km
远地点 35791.206km 35791.201km
周期 1436.187分钟 1436.118分钟
每日圈数 1.002655 1.002703
详细信息
使用方式:
暂无
2D轨道图
3D轨道图
轨道高度分析图
轨道倾角分析图
轨道综合分析图
查看轨道综合分析图